Regional Weather Roundup
Issued by NWS Kansas City/Pleasant Hill, MO

Home | Current Version | Previous Version | Text Only | Print | Product List | Glossary On
Versions: 1 2 3 4 5 6 7 8 9 10 11 12 13 14 15 16 17 18 19 20 21 22 23 24 25 26 27 28 29 30 31 32 33 34 35 36 37 38 39 40 41 42 43 44 45 46 47 48 49 50
476
ASUS43 KEAX 290710
RWREAX

WEATHER ROUNDUP FOR EASTERN KANSAS AND NORTHWEST MISSOURI
NATIONAL WEATHER SERVICE KANSAS CITY/PLEASANT HILL MO
200 AM CDT MON AUG 29 2016

KSZ040-057-103>105-MOZ028-029-037-043-290800-
...KANSAS CITY METROPOLITAN AREA...

CITY           SKY/WX    TMP DP  RH WIND       PRES   REMARKS
K.C. INTL      MOCLDY    72  67  84 E6        30.12S
K.C. DOWNTOWN  CLEAR     73  70  90 NE5       30.10F
LEES SUMMIT    CLEAR     72  70  93 SE7       30.12F
OLATHE - IXD   CLEAR     73  70  90 E7        30.12F
OLATHE - OJC   CLEAR     72  69  90 E6        30.12F
LAWRENCE       CLEAR     70  70 100 CALM      30.10F

$$

MOZ001>008-011>017-020>025-030>033-038>040-044>046-053-054-290800-
...NORTHERN AND CENTRAL MISSOURI...

CITY           SKY/WX    TMP DP  RH WIND       PRES   REMARKS
ST. JOSEPH     PTCLDY    70  68  93 CALM      30.12R
MOSBY          SUNNY     70  70 100 CALM      30.12S
WHITEMAN AFB   PTCLDY    73  73 100 E6        30.11F
CLINTON        CLEAR     73  73 100 SE3       30.12F
SEDALIA        CLEAR     72  69  90 E3        30.14F
WARSAW         NOT AVBL
CHILLICOTHE    NOT AVBL
KIRKSVILLE     PTCLDY    73  70  90 E6        30.16F

$$

MOZ041-047>049-056>058-063>065-088>090-097-290800-
...EASTERN AND SOUTHERN MISSOURI...

CITY           SKY/WX    TMP DP  RH WIND       PRES   REMARKS
ST. LOUIS INTL CLEAR     80  73  79 E3        30.14F
SPIRIT OF STL  CLEAR     75  73  93 CALM      30.13S
COLUMBIA       CLEAR     74  72  93 E6        30.14F
JEFFERSON CITY CLEAR     74  72  93 CALM      30.13S
ROLLA          CLEAR     73  71  93 SE6       30.14F
OSAGE BEACH    CLEAR     73  71  93 CALM      30.14F
SPRINGFIELD    CLEAR     74  68  81 SE6       30.13F
BRANSON        CLEAR     72  70  94 CALM      30.15S
JOPLIN         PTCLDY    74  70  87 SE6       30.12S
WEST PLAINS    CLEAR     72  69  90 NE3       30.16F

$$

IAZ060-094-KSZ022-034>040-054-083-096-NEZ052-066-093-290800-
...KANSAS...SOUTHEAST NEBRASKA AND IOWA...

CITY           SKY/WX    TMP DP  RH WIND       PRES   REMARKS
TOPEKA         PTCLDY    73  69  87 CALM      30.10F
MANHATTAN      PTCLDY    72  70  93 CALM      30.11F
EMPORIA        CLEAR     72  69  90 SE8       30.11F
CHANUTE        CLEAR     73  70  90 E6        30.11F
WICHITA        MOCLDY    74  70  87 W8        30.11R
OMAHA          CLOUDY    71  65  81 SE9       30.14S
LINCOLN        CLOUDY    71  68  90 S5        30.14S
FALLS CITY     PTCLDY    70  68  93 CALM      30.11S
LAMONI         PTCLDY    70  70 100 E3        30.16F
DES MOINES     CLOUDY    73  69  87 S5        30.14F THUNDER

$$





USA.gov is the U.S. government's official web portal to all federal, state and local government web resources and services.